Location: Asheville, NC
(35.6000°N, 82.5500°W)
Time: 00:38:53
(UTC-04:00)

STRAND 1 - Pass Details

Date: 16 March 2018
Orbit: 769 x 781 km, 98.5° (Epoch: 18 June)

Event Time Altitude Azimuth Distance (km) Brightness Sun altitude
Rises 06:46:53 0° 114° (ESE) 3,254 ? -11.5°
Reaches altitude 10° 06:50:41 10° 85° (E) 2,331 ? -10.8°
Maximum altitude 06:52:37 12° 62° (ENE) 2,185 ? -10.4°
Drops below altitude 10° 06:54:34 10° 40° (NE) 2,336 ? -10.0°
Sets 06:58:22 0° 11° (N) 3,268 ? -9.2°
